Walla Walla, WA

12:09 AM PDT on March 25, 2017 (GMT -0700)
Walla Walla Regional

Weather History for KALW - June, 2013

Change the Weather History Date:

Monday, June 24, 2013

  Actual Average Record
Temperature  
Mean Temperature 62 °F 69 °F  
Max Temperature 66 °F 82 °F 106 °F (1992)
Min Temperature 57 °F 56 °F 46 °F (1953)
Degree Days  
Heating Degree Days 4 1  
Month to date heating degree days 56  
Since 1 June heating degree days 56  
Since 1 July heating degree days 5005  
Cooling Degree Days 0 5  
Month to date cooling degree days 72  
Year to date cooling degree days 107  
Since 1 June cooling degree days 72  
Growing Degree Days 12 (Base 50)    
Moisture  
Dew Point 56 °F    
Average Humidity 86    
Maximum Humidity 96    
Minimum Humidity 68    
Precipitation  
Precipitation 0.40 in 0.03 in 0.43 in (1958)
Month to date precipitation 1.14  
Year to date precipitation 11.78  
Snow  
Snow 0.00 in 0.00 in 0.00 in (2002)
Month to date snowfall 0.0  
Year to date snowfall 6.0  
Since 1 July snowfall 11.7  
Snow Depth -    
Sea Level Pressure  
Sea Level Pressure 29.68 in    
Wind  
Wind Speed 5 mph (SSW)    
Max Wind Speed 14 mph    
Max Gust Speed -    
Visibility 8 miles    
Events Rain    
T = Trace of Precipitation, MM = Missing Value Source: NWS Daily Summary

Daily Weather History Graph

Daily Weather History Graph

Search for Another Location

Airport or City:

Trip Planner

Search our weather history database for the weather conditions in past years. The results will help you decide how hot, cold, wet, or windy it might be!

Date:

Astronomy

Jun. 24, 2013 Rise Set
Actual Time 5:02 AM PDT 8:48 PM PDT
Civil Twilight 4:24 AM PDT 9:27 PM PDT
Nautical Twilight 3:31 AM PDT 10:19 PM PDT
Astronomical Twilight 2:18 AM PDT 11:32 PM PDT
Moon 9:45 PM PDT (6/24) 6:42 AM PDT (6/24)
Length of Visible Light 17h 02m
Length of Day
15h 45m
Full, 97% of the Moon is Illuminated
Jun 24
Full
Jun 29
Last Quarter
Jul 8
New
Jul 15
First Quarter
Jul 22
Full

Hourly Weather History & Observations

Time (PDT) Temp. Dew Point Humidity Pressure Visibility Wind Dir Wind Speed Gust Speed Precip Events Conditions
12:22 AM 60.8 °F 57.2 °F 88% 29.68 in 2.5 mi South 4.6 mph - 0.11 in Rain Heavy Rain
12:31 AM 60.8 °F 57.2 °F 88% 29.68 in 4.0 mi South 5.8 mph - 0.14 in Rain Rain
12:53 AM 60.1 °F 57.9 °F 93% 29.65 in 6.0 mi SSE 4.6 mph - 0.16 in Rain Light Rain
1:53 AM 60.1 °F 57.9 °F 93% 29.64 in 10.0 mi NNE 3.5 mph - 0.03 in Rain Light Rain
2:53 AM 59.0 °F 57.9 °F 96% 29.63 in 9.0 mi Calm Calm - 0.02 in   Overcast
3:11 AM 59.0 °F 57.2 °F 94% 29.64 in 9.0 mi Calm Calm - 0.00 in Rain Light Rain
3:28 AM 60.8 °F 57.2 °F 88% 29.64 in 10.0 mi Calm Calm - 0.00 in   Overcast
3:53 AM 60.1 °F 57.9 °F 93% 29.62 in 10.0 mi Calm Calm - 0.00 in   Overcast
4:05 AM 60.8 °F 57.2 °F 88% 29.64 in 10.0 mi Calm Calm - N/A   Overcast
4:53 AM 59.0 °F 57.9 °F 96% 29.64 in 7.0 mi SW 3.5 mph - N/A   Overcast
5:08 AM 59.0 °F 57.2 °F 94% 29.65 in 7.0 mi SW 3.5 mph - N/A   Overcast
5:33 AM 59.0 °F 57.2 °F 94% 29.65 in 9.0 mi SSW 4.6 mph - N/A   Overcast
5:53 AM 59.0 °F 57.9 °F 96% 29.64 in 5.0 mi South 4.6 mph - 0.00 in Rain Light Rain
6:07 AM 59.0 °F 57.2 °F 94% 29.66 in 5.0 mi South 4.6 mph - 0.00 in Rain Light Rain
6:53 AM 60.1 °F 57.9 °F 93% 29.64 in 8.0 mi South 5.8 mph - 0.00 in   Overcast
7:06 AM 60.8 °F 57.2 °F 88% 29.65 in 9.0 mi South 6.9 mph - N/A   Overcast
7:53 AM 60.1 °F 57.9 °F 93% 29.65 in 10.0 mi SSW 6.9 mph - 0.01 in Rain Light Rain
8:53 AM 61.0 °F 57.9 °F 90% 29.66 in 10.0 mi South 8.1 mph - 0.00 in Rain Light Rain
9:14 AM 60.8 °F 57.2 °F 88% 29.68 in 4.0 mi South 9.2 mph - 0.02 in Rain Light Rain
9:53 AM 62.1 °F 59.0 °F 90% 29.66 in 10.0 mi SSE 6.9 mph - 0.03 in Rain Light Rain
10:53 AM 64.0 °F 57.0 °F 78% 29.67 in 10.0 mi South 5.8 mph - 0.00 in Rain Light Rain
11:53 AM 66.0 °F 55.9 °F 70% 29.67 in 10.0 mi WSW 3.5 mph - 0.00 in   Mostly Cloudy
12:53 PM 66.9 °F 55.9 °F 68% 29.66 in 10.0 mi West 3.5 mph - N/A   Overcast
1:17 PM 64.4 °F 57.2 °F 77% 29.67 in 1.8 mi WNW 6.9 mph - 0.05 in Rain Heavy Rain
1:23 PM 64.4 °F 57.2 °F 77% 29.67 in 10.0 mi WNW 6.9 mph - 0.06 in Rain Light Rain
1:53 PM 63.0 °F 57.0 °F 81% 29.67 in 10.0 mi West 11.5 mph - 0.06 in Rain Light Rain
2:21 PM 62.6 °F 55.4 °F 77% 29.69 in 7.0 mi WSW 13.8 mph - 0.02 in Rain Light Rain
2:53 PM 60.1 °F 57.0 °F 90% 29.70 in 6.0 mi SW 11.5 mph - 0.05 in Rain Light Rain
3:39 PM 60.8 °F 57.2 °F 88% 29.71 in 10.0 mi WSW 10.4 mph - 0.02 in Rain Light Rain
3:53 PM 59.0 °F 54.0 °F 83% 29.71 in 10.0 mi WSW 11.5 mph - 0.03 in Rain Light Rain
4:00 PM 59.0 °F 55.4 °F 88% 29.72 in 10.0 mi SW 8.1 mph - 0.00 in Rain Light Rain
4:18 PM 59.0 °F 55.4 °F 88% 29.73 in 10.0 mi SSW 6.9 mph - 0.00 in Rain Light Rain
4:45 PM 59.0 °F 55.4 °F 88% 29.73 in 10.0 mi South 4.6 mph - 0.00 in Rain Light Rain
4:53 PM 59.0 °F 55.0 °F 87% 29.72 in 10.0 mi SSE 5.8 mph - 0.00 in   Overcast
5:53 PM 60.1 °F 55.0 °F 83% 29.72 in 9.0 mi South 5.8 mph - 0.01 in Rain Light Rain
6:53 PM 60.1 °F 54.0 °F 80% 29.72 in 10.0 mi SSE 9.2 mph - 0.00 in   Mostly Cloudy
7:53 PM 61.0 °F 54.0 °F 78% 29.72 in 10.0 mi SE 5.8 mph - N/A   Overcast
8:53 PM 60.1 °F 55.0 °F 83% 29.71 in 10.0 mi East 4.6 mph - N/A   Overcast
9:53 PM 57.9 °F 53.1 °F 84% 29.73 in 10.0 mi ESE 6.9 mph - N/A   Overcast
10:53 PM 57.0 °F 52.0 °F 83% 29.73 in 10.0 mi ESE 8.1 mph - N/A   Overcast
11:53 PM 57.9 °F 51.1 °F 78% 29.73 in 10.0 mi ESE 6.9 mph - N/A   Mostly Cloudy